EW7788 Weather Reports


time (UTC)temp
C
wind
direction
speed
KPH
gust
KPH
rain 1hr
cm
rain 24hr
cm
rain mn
cm
humidity
%
barometer
mb
20260504050005 15 308 6.4 37.0 0.00 0.20 0.05 61 1008.9
20260504044602 15 71 9.7 25.7 0.00 0.20 0.05 61 1008.7
20260504043002 16 150 8.0 30.6 0.00 0.20 0.05 58 1008.6
20260504041602 16 163 12.9 30.6 0.00 0.20 0.05 58 1008.7
20260504040003 16 57 14.5 33.8 0.03 0.28 0.05 59 1008.8
20260504034604 16 327 6.4 29.0 0.03 0.28 0.05 63 1008.7
20260504033002 15 314 9.7 29.0 0.03 0.28 0.05 64 1008.9
20260504031627 15 146 14.5 38.6 0.03 0.28 0.05 64 1008.9
20260504030003 15 68 16.1 38.6 0.00 0.43 0.03 65 1009.0
20260504024605 15 342 14.5 35.4 0.00 0.43 0.03 65 1008.7
20260504023004 16 140 12.9 40.2 0.00 0.43 0.03 64 1009.1
20260504021604 16 223 17.7 43.5 0.00 0.43 0.03 65 1009.2
20260504020015 16 42 16.1 33.8 0.00 0.43 0.03 66 1009.4
20260504014504 16 29 14.5 29.0 0.00 0.51 0.03 65 1009.9
20260504013005 16 11 14.5 32.2 0.00 0.51 0.03 65 1010.2
20260504011605 16 17 14.5 30.6 0.00 0.51 0.03 64 1010.3
20260504010012 15 355 16.1 25.7 0.00 0.51 0.03 66 1010.3
20260504004515 15 26 11.3 29.0 0.00 0.51 0.03 68 1010.5
20260504003104 15 360 19.3 33.8 0.00 0.51 0.03 67 1010.4
20260504001606 15 360 14.5 37.0 0.00 0.51 0.03 68 1010.8
20260504000004 14 26 11.3 29.0 0.00 0.51 0.03 69 1011.1
20260503234629 13 28 4.8 20.9 0.00 0.51 0.03 70 1011.1
20260503233016 13 25 11.3 25.7 0.00 0.51 0.03 73 1011.0
20260503231504 13 20 1.6 14.5 0.00 0.51 0.03 78 1011.1
20260503230007 12 48 6.4 9.7 0.00 0.51 0.03 81 1011.2
20260503224604 11 73 1.6 4.8 0.00 0.51 0.03 82 1011.5
20260503223005 11 85 4.8 9.7 0.00 0.51 0.03 82 1011.5
20260503221606 10 44 3.2 6.4 0.00 0.51 0.03 84 1011.4
20260503220005 8 117 1.6 6.4 0.00 0.51 0.03 85 1011.6
20260503214606 8 260 1.6 6.4 0.00 0.51 0.03 83 1011.6
20260503213005 9 40 11.3 17.7 0.00 0.51 0.03 83 1011.4
20260503211604 10 19 4.8 16.1 0.00 0.51 0.03 83 1011.4
20260503210005 10 26 6.4 9.7 0.00 0.51 0.03 82 1011.3
20260503204603 10 36 4.8 9.7 0.00 0.51 0.03 82 1011.1
20260503203014 10 355 3.2 8.0 0.00 0.51 0.03 82 1010.9
20260503201504 10 85 1.6 4.8 0.00 0.51 0.03 84 1010.9
20260503200004 10 85 1.6 3.2 0.00 0.51 0.03 84 1010.9
20260503194604 10 85 0.0 3.2 0.00 0.51 0.03 83 1010.7
20260503193004 10 342 3.2 14.5 0.03 0.51 0.03 82 1011.0
20260503191604 10 306 1.6 3.2 0.03 0.51 0.03 81 1011.1
20260503190004 10 306 1.6 4.8 0.03 0.51 0.03 80 1011.3
20260503184604 11 306 1.6 9.7 0.03 0.51 0.03 80 1011.2
20260503183014 11 300 1.6 6.4 0.00 0.51 0.00 79 1011.3
20260503181506 11 272 3.2 14.5 0.00 0.51 0.00 80 1011.2
20260503180011 11 282 6.4 16.1 0.00 0.51 0.00 81 1011.2
20260503174504 11 303 6.4 17.7 0.00 0.51 0.00 82 1011.2
20260503173004 11 38 3.2 8.0 0.00 0.51 0.00 81 1011.2
20260503171604 11 38 3.2 8.0 0.00 0.51 0.00 80 1011.2
20260503081603 13 306 6.4 14.5 0.03 0.48 0.48 89 1010.0
20260503071615 16 254 4.8 11.3 0.03 0.46 0.46 88 1009.7
20260503054603 16 31 4.8 16.1 0.03 0.43 0.43 87 1009.1
20260503053003 16 350 1.6 4.8 0.05 0.43 0.43 87 1009.1